This demonstration page uses our WeatherBlox Daily Observations layout. Learn more.

Left ArrowRight Arrow

Hourly Observations for September 25, 2017

Temp ( °F °C ) Dew Point ( °F °C ) Humidity (%) Winds ( mph kmh ) Pressure ( in mb ) Visibility ( mi km ) Precip ( " mm )
12:51 am 00:51 Clear 60 15.6 21 -6.1 22 22 NNW 6 9 29.71 1006 10 16.0934 0 0
1:51 am 01:51 Clear 57 13.9 21 -6.1 25 25 NW 6 9 29.71 1006 10 16.0934 0 0
2:51 am 02:51 Clear 58 14.4 22 -5.6 25 25 ESE 5 7 29.71 1006 10 16.0934 0 0
3:51 am 03:51 Clear 54 12.2 23 -5 30 30 E 3 6 29.72 1007 10 16.0934 0 0
4:51 am 04:51 Clear 50 10 21 -6.1 32 32 ESE 3 6 29.74 1007 10 16.0934 0 0
5:51 am 05:51 Clear 49 9.4 21 -6.1 33 33 E 5 7 29.75 1008 10 16.0934 0 0
6:51 am 06:51 Sunny 54 12.2 22 -5.6 29 29 NE 3 6 29.77 1008 10 16.0934 0 0
7:51 am 07:51 Sunny 64 17.8 23 -5 21 21 SE 3 6 29.77 1008 10 16.0934 0 0
8:51 am 08:51 Sunny 67 19.4 23 -5 19 19 Calm 29.77 1008 10 16.0934 0 0
9:51 am 09:51 Sunny 71 21.7 23 -5 16 16 VRB 3 6 29.77 1008 10 16.0934 0 0
10:51 am 10:51 Sunny 74 23.3 22 -5.6 14 14 Calm 29.75 1008 10 16.0934 0 0
11:51 am 11:51 Sunny 77 25 24 -4.4 14 14 Calm 29.73 1007 10 16.0934 0 0
12:51 pm 12:51 Sunny 80 26.7 27 -2.8 14 14 VRB 3 6 29.7 1006 10 16.0934 0 0
1:51 pm 13:51 Sunny 85 29.4 27 -2.8 12 12 VRB 5 7 29.67 1005 10 16.0934 0 0
2:51 pm 14:51 Sunny 84 28.9 27 -2.8 12 12 ESE 3 6 29.65 1004 10 16.0934 0 0
3:51 pm 15:51 Sunny 84 28.9 26 -3.3 12 12 WNW 13 20 29.65 1004 10 16.0934 0 0
4:51 pm 16:51 Sunny 83 28.3 26 -3.3 12 12 NW 6 9 29.65 1004 10 16.0934 0 0
5:51 pm 17:51 Sunny 81 27.2 26 -3.3 13 13 WNW 5 7 29.66 1004 10 16.0934 0 0
6:51 pm 18:51 Clear 72 22.2 24 -4.4 17 17 NW 8 13 29.67 1005 10 16.0934 0 0
7:51 pm 19:51 Clear 69 20.6 19 -7.2 15 15 NNW 7 11 29.69 1005 10 16.0934 0 0
8:51 pm 20:51 Clear 66 18.9 18 -7.8 16 16 NNW 7 11 29.69 1006 10 16.0934 0 0
9:51 pm 21:51 Clear 63 17.2 16 -8.9 16 16 N 9 15 29.7 1006 10 16.0934 0 0
10:51 pm 22:51 Clear 67 19.4 13 -10.6 12 12 NW 10 17 29.69 1006 10 16.0934 0 0
11:51 pm 23:51 Clear 61 16.1 12 -11.1 14 14 NW 7 11 29.71 1006 10 16.0934 0 0

Powered by AerisWeather